[[{"header":{"parameterUnit":"m.s-1","parameterCategory":1,"la1":30.2991,"la2":30.254,"lo1":-89.0895,"lo2":-89.0444,"dy":0.0017,"dx":0.0017,"nx":28,"ny":28,"refTime":"2023-08-11T21:00:00:Z","depth":0,"parameterNumber":2,"parameterNumberName":"U-component_of_WINDS"},"data":[0,0,0,0,0,0,0,0,0,0,0,0,0,0,0,0,0,0,0,0,0,0,0,0,0,0,0,0,0,0,0,0,0,0,0,0,0,0,0,0,0,0,0,0,0,0,0,0,0,0,0,0,0,0,0,0,0,0,2.3871,2.3872,0,2.4,2.4001,2.4003,2.4008,2.4006,2.4005,2.4003,2.4142,2.4147,2.4152,0,0,0,0,0,0,0,0,0,0,0,0,0,2.3635,2.364,2.3871,2.3872,2.3874,2.4,2.4001,2.4003,2.4008,2.4006,2.4004,2.4002,2.414,2.4146,2.4152,0,0,0,0,0,0,0,0,0,0,0,0,0,2.3749,2.3641,2.3871,2.3891,2.3895,2.3999,2.4001,2.4004,2.4008,2.4006,2.4004,2.4002,2.4138,2.4145,2.4153,2.4248,0,0,2.4177,2.418,0,0,0,0,0,0,0,0,2.3742,2.3757,2.3887,2.389,2.3894,2.3985,2.3969,2.4086,2.4009,2.3965,2.4003,2.4,2.4092,2.4103,2.4133,2.4254,2.426,2.4177,2.4182,2.4185,2.4187,0,0,0,0,0,0,0,2.3734,2.3752,2.3922,2.3889,2.3893,2.3897,2.391,2.3991,2.404,2.3969,2.397,2.3985,2.4093,2.4125,2.4136,2.4262,2.4177,2.4184,2.4189,2.4192,2.4469,2.4471,0,0,0,0,0,0,2.3721,2.3745,2.3918,2.3926,2.381,2.3903,2.3918,2.3958,2.4039,2.4049,2.3986,2.3984,2.4113,2.4127,2.4141,2.4257,2.4185,2.4192,2.4197,2.4466,2.4469,2.4472,0,0,0,0,0,0,2.3716,2.3737,2.3913,2.3836,2.3858,2.3909,2.3955,2.3962,2.3994,2.4053,2.4062,2.4009,2.4112,2.413,2.4221,2.4262,2.4196,2.4203,2.4463,2.4467,2.4471,2.449,0,0,0,0,0,0,2.371,2.3735,2.3769,2.3836,2.3862,2.3988,2.3957,2.3966,2.4006,2.4005,2.4077,2.4086,2.4112,2.4209,2.4228,2.4271,2.4209,2.4459,2.4465,2.4469,2.4486,2.4494,2.4501,0,0,0,0,0,2.3701,2.3771,2.3771,2.3792,2.3906,2.3991,2.4006,2.4031,2.401,2.4046,2.4084,2.4084,2.4255,2.4218,2.424,2.4286,2.4457,2.4463,2.4469,2.4482,2.4492,2.4501,0,0,0,0,0,0,2.3709,2.378,2.3781,2.3874,2.3926,2.3991,2.4038,2.4041,2.4102,2.4098,2.413,2.4146,2.4236,2.4271,2.4229,2.4382,2.4353,2.4364,2.4356,2.4366,2.4374,2.4363,2.4215,0,0,0,0,0,2.3722,2.3782,2.3841,2.3918,2.3944,2.3986,2.4024,2.4039,2.4095,2.4118,2.4162,2.4218,2.4285,2.4328,2.4392,2.4491,2.4508,2.4534,2.4542,2.4548,2.4556,2.4612,2.4625,2.4492,2.4492,2.4492,0,0,2.3748,2.3795,2.3831,2.3921,2.3963,2.4027,2.4005,2.4073,2.4121,2.4129,2.4216,2.4251,2.4316,2.4412,2.4456,2.4443,2.4597,2.4555,2.456,2.4565,2.462,2.4632,2.4643,2.4497,2.4496,2.4495,0,0,2.3829,2.387,2.3938,2.3981,2.4044,2.4072,2.4088,2.4153,2.4176,2.4264,2.4271,2.4331,2.4444,2.449,2.4528,2.4628,2.4631,2.4648,2.4689,2.4743,2.4753,2.4762,2.4798,2.4811,2.4657,2.4657,2.4657,0,2.3855,2.3949,2.3973,2.4041,2.4081,2.409,2.416,2.4201,2.4283,2.4312,2.4296,2.4438,2.4483,2.4589,2.4613,2.4644,2.4665,2.464,2.4749,2.4759,2.4768,2.4803,2.4816,2.4659,2.4659,2.4659,2.4658,0,2.3977,2.4043,2.4091,2.4168,2.4213,2.4283,2.432,2.4364,2.4376,2.4406,2.4497,2.455,2.4625,2.4652,2.4665,2.4761,2.4751,2.4742,2.4714,2.4782,2.4815,2.4828,2.4661,2.4661,2.466,2.466,0,0,2.4065,2.4155,2.4172,2.4208,2.4279,2.4331,2.4402,2.4474,2.4511,2.4568,2.4629,2.4725,2.4717,2.4761,2.4779,2.4827,2.4903,2.4812,2.4814,2.4827,2.5013,2.5018,2.5033,2.4906,2.4908,2.491,2.5007,0,2.4153,2.4276,2.4301,2.4409,2.4471,2.448,2.4542,2.4594,2.4625,2.4683,2.4719,2.4786,2.477,2.4796,2.4844,2.4883,2.4941,2.4877,2.4964,2.4966,2.4946,2.505,2.5056,2.5145,2.502,2.5022,2.5024,0,2.4272,2.433,2.4443,2.4507,2.4534,2.4588,2.4657,2.4712,2.4772,2.4791,2.484,2.4854,2.493,2.4898,2.5004,2.496,2.4998,2.5023,2.5027,2.5035,2.4998,2.5061,2.5174,2.5187,2.5044,2.5043,2.5041,0,2.4324,2.4431,2.4513,2.4543,2.4619,2.4658,2.4692,2.4749,2.4791,2.4852,2.488,2.495,2.4988,2.5042,2.5075,2.5049,2.5179,2.515,2.5198,2.5197,2.5224,2.5222,2.5344,2.525,2.525,2.5249,2.5249,0,2.442,2.4488,2.4537,2.4587,2.4665,2.4695,2.4772,2.4807,2.4858,2.4916,2.493,2.4985,2.5026,2.5087,2.5114,2.5198,2.5215,2.5234,2.524,2.5232,2.523,2.5256,2.5251,2.5253,2.5252,2.5251,2.5251,0,2.449,2.4526,2.4615,2.4681,2.4699,2.4753,2.481,2.486,2.4892,2.4966,2.4985,2.5035,2.5108,2.5147,2.5239,2.5257,2.5351,2.5354,2.533,2.5332,2.5378,2.5372,2.552,2.5541,2.5434,2.5435,2.5436,0,2.4548,2.4601,2.4672,2.4711,2.4745,2.4809,2.4851,2.4884,2.4928,2.5001,2.5043,2.5116,2.5176,2.5293,2.5339,2.5409,2.5414,2.5461,2.5425,2.5415,2.5414,2.541,2.5416,2.5467,2.5468,2.5469,2.5469,0,2.4647,2.4662,2.4722,2.4788,2.4838,2.4893,2.4947,2.4979,2.502,2.507,2.5143,2.519,2.5283,2.5356,2.5431,2.5468,2.5476,2.5481,2.5495,2.5487,2.547,2.5479,2.5346,2.5477,2.5476,2.5476,2.5475,2.5475,2.4713,2.476,2.4817,2.4884,2.4928,2.4978,2.5028,2.5066,2.5127,2.5204,2.5221,2.5299,2.536,2.546,2.55,2.5563,2.5553,2.5575,2.558,2.5585,2.5586,2.5461,2.5577,2.5577,2.5576,2.5576,2.5576,0,2.4811,2.4849,2.491,2.4984,2.5037,2.5039,2.5099,2.5144,2.5212,2.5267,2.5325,2.5411,2.5482,2.5534,2.5607,2.5648,2.5653,2.5666,2.5663,2.5671,2.5591,2.557,2.566,2.566,2.566,2.566,2.566,2.566,2.4869,2.4949,2.4972,2.5075,2.5113,2.5188,2.5222,2.5269,2.5313,2.5407,2.5466,2.5499,2.5553,2.5631,2.5697,2.571,2.5736,2.5748,2.5762,2.5686,2.5677,2.5668,2.5649,2.5754,2.5754,2.5837,2.5838,2.5839]},{"header":{"parameterUnit":"m.s-1","parameterCategory":1,"la1":30.2991,"la2":30.254,"lo1":-89.0895,"lo2":-89.0444,"dy":0.0017,"dx":0.0017,"nx":28,"ny":28,"refTime":"2023-08-11T21:00:00:Z","depth":0,"parameterNumber":3,"parameterNumberName":"V-component_of_WINDS"},"data":[0,0,0,0,0,0,0,0,0,0,0,0,0,0,0,0,0,0,0,0,0,0,0,0,0,0,0,0,0,0,0,0,0,0,0,0,0,0,0,0,0,0,0,0,0,0,0,0,0,0,0,0,0,0,0,0,0,0,3.953,3.9531,0,3.9583,3.9583,3.9584,3.9585,3.9585,3.9584,3.9583,3.9633,3.9635,3.9636,0,0,0,0,0,0,0,0,0,0,0,0,0,3.9425,3.9427,3.953,3.9531,3.9531,3.9582,3.9583,3.9584,3.9585,3.9585,3.9584,3.9583,3.9632,3.9634,3.9637,0,0,0,0,0,0,0,0,0,0,0,0,0,3.9473,3.9427,3.953,3.9538,3.954,3.9582,3.9583,3.9584,3.9586,3.9585,3.9584,3.9583,3.9631,3.9634,3.9637,3.9673,0,0,3.9646,3.9647,0,0,0,0,0,0,0,0,3.947,3.9477,3.9537,3.9538,3.9539,3.9577,3.9564,3.9614,3.9586,3.9568,3.9583,3.9582,3.9614,3.9619,3.963,3.9676,3.9678,3.9646,3.9648,3.9649,3.965,0,0,0,0,0,0,0,3.9467,3.9475,3.9551,3.9537,3.9539,3.9537,3.9543,3.9573,3.9596,3.9569,3.957,3.9576,3.9615,3.9628,3.9632,3.9678,3.9646,3.9648,3.965,3.9651,3.9751,3.9752,0,0,0,0,0,0,3.9463,3.9472,3.9549,3.9552,3.9502,3.954,3.9547,3.9565,3.9595,3.9599,3.9577,3.9576,3.9623,3.9628,3.9633,3.9675,3.9649,3.9651,3.9653,3.9751,3.9752,3.9753,0,0,0,0,0,0,3.946,3.947,3.9547,3.9512,3.9522,3.9543,3.9564,3.9567,3.958,3.9601,3.9604,3.9586,3.9623,3.9629,3.9663,3.9677,3.9653,3.9655,3.9749,3.9751,3.9752,3.9761,0,0,0,0,0,0,3.9457,3.9469,3.9485,3.9513,3.9524,3.9577,3.9565,3.9569,3.9585,3.9584,3.9611,3.9614,3.9623,3.9658,3.9665,3.968,3.9658,3.9748,3.975,3.9752,3.9759,3.9762,3.9765,0,0,0,0,0,3.9454,3.9485,3.9486,3.9495,3.9544,3.9578,3.9585,3.9595,3.9586,3.9601,3.9614,3.9613,3.9674,3.9662,3.967,3.9686,3.9747,3.975,3.9752,3.9758,3.9761,3.9765,0,0,0,0,0,0,3.9458,3.9489,3.949,3.9532,3.9552,3.9579,3.9598,3.9599,3.9622,3.962,3.9631,3.9636,3.9669,3.9681,3.9666,3.972,3.9709,3.9713,3.9711,3.9715,3.9718,3.9714,3.966,0,0,0,0,0,3.9464,3.949,3.9516,3.955,3.956,3.9577,3.9592,3.9598,3.962,3.9628,3.9644,3.9663,3.9686,3.9702,3.9725,3.9761,3.9765,3.9775,3.9778,3.978,3.9783,3.98,3.9804,3.976,3.976,3.976,0,0,3.9476,3.9496,3.9512,3.9551,3.9568,3.9592,3.9584,3.9612,3.963,3.9632,3.9664,3.9676,3.9698,3.9732,3.9748,3.9743,3.9796,3.9783,3.9785,3.9786,3.9802,3.9806,3.981,3.9761,3.9761,3.9761,0,0,3.951,3.953,3.9558,3.9575,3.9601,3.9611,3.9618,3.9644,3.9652,3.9684,3.9685,3.9705,3.9746,3.9761,3.9774,3.981,3.9809,3.9817,3.9831,3.9847,3.9851,3.9854,3.9864,3.9868,3.982,3.982,3.982,0,3.9521,3.9561,3.9573,3.96,3.9615,3.9618,3.9646,3.9661,3.9692,3.9701,3.9696,3.9745,3.976,3.9796,3.9804,3.9816,3.9821,3.9814,3.9849,3.9853,3.9856,3.9865,3.987,3.982,3.982,3.982,3.982,0,3.9572,3.9599,3.9619,3.9649,3.9667,3.9694,3.9707,3.9723,3.9727,3.9737,3.9768,3.9786,3.9811,3.982,3.9824,3.9856,3.9851,3.9848,3.9837,3.986,3.987,3.9874,3.9821,3.9821,3.9821,3.9821,0,0,3.9612,3.9646,3.9653,3.9665,3.9692,3.9712,3.9738,3.9763,3.9775,3.9796,3.9815,3.9848,3.9844,3.9858,3.9864,3.9878,3.9902,3.9872,3.9872,3.9875,3.9934,3.9936,3.994,3.9901,3.9902,3.9903,3.9931,0,3.9647,3.9694,3.9704,3.9744,3.9766,3.9768,3.979,3.9808,3.9817,3.9836,3.9846,3.9869,3.9863,3.9871,3.9885,3.9896,3.9913,3.9894,3.9917,3.9918,3.9911,3.9945,3.9948,3.9974,3.9935,3.9936,3.9937,0,3.9695,3.9716,3.9759,3.978,3.979,3.9809,3.9831,3.9851,3.9869,3.9875,3.9889,3.9892,3.9916,3.9905,3.9936,3.9922,3.9932,3.9938,3.994,3.9941,3.9928,3.9946,3.9983,3.9986,3.9943,3.9942,3.9942,0,3.9716,3.9756,3.9785,3.9796,3.9822,3.9835,3.9846,3.9864,3.9877,3.9896,3.9904,3.9925,3.9936,3.9951,3.9958,3.995,3.9988,3.9978,3.9991,3.9991,3.9998,3.9997,4.0035,4.0007,4.0007,4.0007,4.0007,0,3.9753,3.9778,3.9794,3.9812,3.9839,3.9849,3.9874,3.9885,3.99,3.9918,3.9921,3.9938,3.9948,3.9965,3.9971,3.9994,3.9999,4.0003,4.0004,4.0002,4.0001,4.0007,4.0005,4.0008,4.0008,4.0008,4.0008,0,3.9781,3.9794,3.9825,3.9847,3.9852,3.9871,3.9888,3.9904,3.9913,3.9936,3.9941,3.9955,3.9975,3.9984,4.0009,4.0013,4.0039,4.0039,4.0033,4.0032,4.0045,4.0042,4.0087,4.0092,4.0062,4.0062,4.0063,0,3.9804,3.9823,3.9846,3.9858,3.987,3.9891,3.9904,3.9913,3.9926,3.9947,3.996,3.998,3.9997,4.0029,4.0039,4.0058,4.0058,4.0072,4.006,4.0057,4.0055,4.0053,4.0054,4.0073,4.0074,4.0074,4.0074,0,3.9841,3.9845,3.9865,3.9886,3.9902,3.9919,3.9936,3.9945,3.9957,3.9971,3.9992,4.0005,4.003,4.0049,4.0067,4.0077,4.0076,4.0078,4.0081,4.0079,4.0073,4.0074,4.0036,4.0077,4.0076,4.0076,4.0076,4.0076,3.9865,3.9881,3.9899,3.992,3.9933,3.9948,3.9963,3.9974,3.9992,4.0013,4.0017,4.0038,4.0053,4.0078,4.0088,4.0103,4.01,4.0105,4.0107,4.0107,4.0107,4.0072,4.0107,4.0107,4.0107,4.0107,4.0107,0,3.99,3.9912,3.9931,3.9953,3.9969,3.9969,3.9986,3.9999,4.0018,4.0032,4.0049,4.0071,4.0089,4.0101,4.0118,4.0128,4.0128,4.0132,4.0131,4.0132,4.011,4.0105,4.0132,4.0132,4.0132,4.0132,4.0132,4.0132,3.9921,3.9946,3.9952,3.9984,3.9994,4.0016,4.0025,4.0038,4.0049,4.0074,4.009,4.0097,4.011,4.0128,4.0144,4.0146,4.0152,4.0156,4.0158,4.0137,4.0134,4.0132,4.0126,4.0157,4.0157,4.0178,4.0179,4.0179]}]]